When you browse on this site, cookies collect data to enhance your experience and personalize the content and advertising you see.
Visit our Privacy Policy to learn more. By continuing to use the site, you agree to this use of cookies and data.
  • In Hungary
  • List of Countries
  • For 7 days
  • Water Temperature
  • Satellite Maps
  • Weather Map
  • News
  • Weather Widgets
  • user-avatar
    Login

    Hourly Weather Karachi

    Today, 16 January, Wednesday

    Time Temperature Precipitation Wind Pressure Humidity
    00:00 +22°C° 0 mm 3 mps 760 mmHg 69%
    01:00 +21°C° 0 mm 3 mps 760 mmHg 74%
    02:00 +21°C° 0 mm 3 mps 760 mmHg 78%
    03:00 +21°C° 0 mm 3 mps 759 mmHg 81%
    04:00 +21°C° 0 mm 3 mps 759 mmHg 87%
    05:00 +21°C° 0 mm 3 mps 760 mmHg 88%
    06:00 +21°C° 0 mm 3 mps 760 mmHg 88%
    07:00 +21°C° 0 mm 2 mps 760 mmHg 89%
    08:00 +23°C° 0 mm 2 mps 760 mmHg 82%
    09:00 +25°C° 0 mm 2 mps 760 mmHg 74%
    10:00 +24°C° 0 mm 0 mps 760 mmHg 63%
    11:00 +27°C° 0 mm 1 mps 760 mmHg 58%
    12:00 +28°C° 0 mm 2 mps 759 mmHg 53%
    13:00 +28°C° 0 mm 2 mps 759 mmHg 49%
    14:00 +28°C° 0 mm 3 mps 758 mmHg 51%
    15:00 +28°C° 0 mm 3 mps 758 mmHg 54%
    16:00 +27°C° 0 mm 4 mps 758 mmHg 57%
    17:00 +27°C° 0 mm 4 mps 758 mmHg 62%
    18:00 +26°C° 0 mm 3 mps 759 mmHg 68%
    19:00 +25°C° 0 mm 3 mps 759 mmHg 73%
    20:00 +25°C° 0 mm 3 mps 759 mmHg 73%
    21:00 +24°C° 0 mm 3 mps 759 mmHg 74%
    22:00 +24°C° 0 mm 2 mps 759 mmHg 75%
    23:00 +24°C° 0 mm 2 mps 759 mmHg 76%

    Tomorrow, 17 January, Thursday

    Time Temperature Precipitation Wind Pressure Humidity
    00:00 +23°C° 0 mm 2 mps 759 mmHg 78%
    01:00 +23°C° 0 mm 2 mps 759 mmHg 79%
    02:00 +23°C° 0 mm 2 mps 759 mmHg 81%
    03:00 +21°C° 0 mm 2 mps 759 mmHg 82%
    04:00 +22°C° 0 mm 1 mps 758 mmHg 84%
    05:00 +22°C° 0 mm 1 mps 759 mmHg 82%
    06:00 +22°C° 0 mm 1 mps 759 mmHg 80%
    07:00 +22°C° 0 mm 1 mps 759 mmHg 78%
    08:00 +24°C° 0 mm 2 mps 760 mmHg 66%
    09:00 +26°C° 0 mm 2 mps 760 mmHg 55%
    10:00 +28°C° 0 mm 3 mps 760 mmHg 43%
    11:00 +29°C° 0 mm 3 mps 760 mmHg 34%
    12:00 +30°C° 0 mm 4 mps 759 mmHg 26%
    13:00 +32°C° 0 mm 4 mps 758 mmHg 17%
    14:00 +32°C° 0 mm 4 mps 758 mmHg 15%
    15:00 +32°C° 0 mm 4 mps 758 mmHg 14%
    16:00 +32°C° 0 mm 5 mps 758 mmHg 12%
    17:00 +30°C° 0 mm 5 mps 758 mmHg 13%
    18:00 +29°C° 0 mm 5 mps 759 mmHg 13%
    19:00 +27°C° 0 mm 5 mps 759 mmHg 14%
    20:00 +27°C° 0 mm 5 mps 759 mmHg 14%
    21:00 +26°C° 0 mm 5 mps 759 mmHg 15%
    22:00 +26°C° 0 mm 5 mps 759 mmHg 15%
    23:00 +25°C° 0 mm 4 mps 759 mmHg 15%

    Day after tomorrow, 18 January, Friday

    Time Temperature Precipitation Wind Pressure Humidity
    00:00 +25°C° 0 mm 4 mps 759 mmHg 16%
    01:00 +23°C° 0 mm 4 mps 759 mmHg 16%
    02:00 +23°C° 0 mm 4 mps 759 mmHg 16%
    03:00 +22°C° 0 mm 4 mps 759 mmHg 16%
    04:00 +22°C° 0 mm 4 mps 759 mmHg 16%
    05:00 +22°C° 0 mm 4 mps 759 mmHg 16%
    06:00 +22°C° 0 mm 4 mps 760 mmHg 16%
    07:00 +22°C° 0 mm 4 mps 760 mmHg 16%
    08:00 +25°C° 0 mm 5 mps 760 mmHg 15%
    09:00 +27°C° 0 mm 5 mps 761 mmHg 13%
    10:00 +28°C° 0 mm 5 mps 761 mmHg 12%
    11:00 +29°C° 0 mm 5 mps 760 mmHg 11%
    12:00 +30°C° 0 mm 4 mps 760 mmHg 11%
    13:00 +32°C° 0 mm 4 mps 759 mmHg 11%
    14:00 +31°C° 0 mm 3 mps 759 mmHg 11%
    15:00 +31°C° 0 mm 2 mps 758 mmHg 11%
    16:00 +31°C° 0 mm 2 mps 758 mmHg 12%
    17:00 +29°C° 0 mm 2 mps 759 mmHg 14%
    18:00 +28°C° 0 mm 2 mps 759 mmHg 15%
    19:00 +26°C° 0 mm 2 mps 759 mmHg 17%
    20:00 +26°C° 0 mm 2 mps 759 mmHg 18%
    21:00 +25°C° 0 mm 2 mps 760 mmHg 19%
    22:00 +25°C° 0 mm 1 mps 760 mmHg 19%
    23:00 +24°C° 0 mm 2 mps 759 mmHg 20%

    19 January, Saturday

    Time Temperature Precipitation Wind Pressure Humidity
    00:00 +24°C° 0 mm 2 mps 759 mmHg 21%
    01:00 +23°C° 0 mm 2 mps 759 mmHg 22%
    02:00 +23°C° 0 mm 2 mps 759 mmHg 22%
    03:00 +21°C° 0 mm 2 mps 758 mmHg 22%
    04:00 +21°C° 0 mm 2 mps 758 mmHg 21%
    05:00 +21°C° 0 mm 2 mps 759 mmHg 21%
    06:00 +21°C° 0 mm 3 mps 759 mmHg 21%
    07:00 +21°C° 0 mm 3 mps 760 mmHg 20%
    08:00 +24°C° 0 mm 3 mps 760 mmHg 18%
    09:00 +26°C° 0 mm 4 mps 760 mmHg 16%
    10:00 +28°C° 0 mm 4 mps 760 mmHg 14%
    11:00 +29°C° 0 mm 3 mps 760 mmHg 13%
    12:00 +30°C° 0 mm 3 mps 759 mmHg 13%
    13:00 +30°C° 0 mm 2 mps 758 mmHg 12%
    14:00 +30°C° 0 mm 2 mps 758 mmHg 13%
    15:00 +30°C° 0 mm 2 mps 758 mmHg 13%
    16:00 +30°C° 0 mm 2 mps 758 mmHg 13%
    17:00 +29°C° 0 mm 2 mps 758 mmHg 16%
    18:00 +27°C° 0 mm 2 mps 759 mmHg 19%
    19:00 +25°C° 0 mm 2 mps 759 mmHg 22%
    20:00 +25°C° 0 mm 2 mps 759 mmHg 22%
    21:00 +24°C° 0 mm 1 mps 759 mmHg 21%
    22:00 +24°C° 0 mm 1 mps 760 mmHg 21%
    23:00 +23°C° 0 mm 1 mps 759 mmHg 21%

    20 January, Sunday

    Time Temperature Precipitation Wind Pressure Humidity
    00:00 +23°C° 0 mm 1 mps 759 mmHg 22%
    01:00 +22°C° 0 mm 1 mps 759 mmHg 22%
    02:00 +22°C° 0 mm 1 mps 759 mmHg 22%
    03:00 +22°C° 0 mm 1 mps 759 mmHg 22%
    04:00 +21°C° 0 mm 1 mps 758 mmHg 23%
    05:00 +21°C° 0 mm 1 mps 759 mmHg 23%
    06:00 +21°C° 0 mm 1 mps 759 mmHg 22%
    07:00 +21°C° 0 mm 1 mps 760 mmHg 22%
    08:00 +23°C° 0 mm 1 mps 760 mmHg 20%
    09:00 +24°C° 0 mm 1 mps 760 mmHg 18%
    10:00 +26°C° 0 mm 1 mps 760 mmHg 17%
    11:00 +27°C° 0 mm 1 mps 759 mmHg 18%
    12:00 +27°C° 0 mm 2 mps 759 mmHg 19%
    13:00 +28°C° 0 mm 3 mps 758 mmHg 20%
    14:00 +28°C° 0 mm 3 mps 758 mmHg 26%
    15:00 +27°C° 0 mm 4 mps 757 mmHg 32%
    16:00 +27°C° 0 mm 4 mps 757 mmHg 38%
    17:00 +26°C° 0 mm 4 mps 757 mmHg 46%
    18:00 +25°C° 0 mm 4 mps 758 mmHg 54%
    19:00 +25°C° 0 mm 3 mps 758 mmHg 62%
    20:00 +24°C° 0.2 mm 3 mps 758 mmHg 64%
    21:00 +24°C° 0.2 mm 3 mps 758 mmHg 66%
    22:00 +24°C° 0.2 mm 3 mps 758 mmHg 68%
    23:00 +24°C° 0 mm 3 mps 758 mmHg 70%

    21 January, Monday

    Time Temperature Precipitation Wind Pressure Humidity
    00:00 +24°C° 0 mm 3 mps 758 mmHg 72%
    01:00 +22°C° 0 mm 4 mps 757 mmHg 74%
    02:00 +22°C° 0 mm 4 mps 757 mmHg 74%
    03:00 +22°C° 0 mm 4 mps 757 mmHg 74%
    04:00 +22°C° 0 mm 4 mps 757 mmHg 74%
    05:00 +22°C° 0 mm 3 mps 757 mmHg 72%
    06:00 +21°C° 0 mm 3 mps 757 mmHg 71%
    07:00 +21°C° 0 mm 2 mps 758 mmHg 69%
    08:00 +24°C° 0 mm 3 mps 758 mmHg 61%
    09:00 +25°C° 0 mm 3 mps 758 mmHg 53%
    10:00 +26°C° 0 mm 4 mps 758 mmHg 45%
    11:00 +26°C° 0 mm 5 mps 758 mmHg 40%
    12:00 +27°C° 0 mm 5 mps 757 mmHg 35%
    13:00 +27°C° 0 mm 6 mps 756 mmHg 30%
    14:00 +27°C° 0 mm 6 mps 756 mmHg 32%
    15:00 +26°C° 0 mm 6 mps 755 mmHg 33%
    16:00 +26°C° 0 mm 7 mps 755 mmHg 35%
    17:00 +24°C° 0 mm 6 mps 756 mmHg 36%
    18:00 +23°C° 0 mm 6 mps 756 mmHg 37%
    19:00 +23°C° 0 mm 5 mps 756 mmHg 38%
    20:00 +23°C° 0 mm 5 mps 757 mmHg 37%
    21:00 +22°C° 0 mm 6 mps 757 mmHg 36%
    22:00 +22°C° 0 mm 6 mps 757 mmHg 36%
    23:00 +22°C° 0 mm 6 mps 757 mmHg 34%
    Show more